Location: Celina Division
(33.3022°N, 96.7580°W)
Time: 11:59:52
(UTC+00:00)

NOAA 12 - Pass Details

Date: 08 December 2021
Orbit: 795 x 816 km, 98.5° (Epoch: 22 January)

Event Time Altitude Azimuth Distance (km) Brightness Sun altitude
Rises 23:43:54 0° 169° (S) 3,325 7.5 -5.4°
Reaches altitude 10° 23:46:14 10° 170° (S) 2,396 6.8 -5.9°
Maximum altitude 23:51:33 79° 258° (WSW) 831 4.3 -6.9°
Drops below altitude 10° 23:56:53 10° 345° (NNW) 2,402 6.5 -7.9°
Sets 23:59:14 0° 346° (NNW) 3,335 7.2 -8.4°
